Location: Oriwa
(40.7500°S, 175.3333°E)
Time: 14:13:28
(UTC+00:00)

Meteor 1-22 Rocket - Pass Details

Date: 03 February 2023
Orbit: 788 x 939 km, 81.2° (Epoch: 31 March)

Event Time Altitude Azimuth Distance (km) Brightness Sun altitude
Rises 14:20:58 0° 188° (S) 3,418 8.1 -27.5°
Reaches altitude 10° 14:23:27 10° 185° (S) 2,456 7.3 -27.2°
Maximum altitude 14:28:58 68° 101° (E) 874 4.3 -26.7°
Enters shadow 14:29:55 56° 48° (NE) 956 4.3 -26.6°
